Date,TemperatureHighF,TemperatureAvgF,TemperatureLowF,DewpointHighF,DewpointAvgF,DewpointLowF,HumidityHigh,HumidityAvg,HumidityLow,PressureMaxIn,PressureMinIn,WindSpeedMaxMPH,WindSpeedAvgMPH,GustSpeedMaxMPH,PrecipitationSumIn
2013-1-1,31,24,18,16,11,4,71,57,44,0.00,40.00,9,4,22,0.00
2013-1-2,25,20,13,16,11,4,80,66,52,0.00,40.00,7,4,24,0.00
2013-1-3,43,28,10,10,4,-4,71,39,14,0.00,40.00,10,4,25,0.00
2013-1-4,51,40,31,10,5,0,31,23,16,0.00,40.00,6,2,13,0.00
2013-1-5,37,31,28,16,13,5,61,46,30,0.00,40.00,10,5,23,0.00
2013-1-6,53,39,27,13,3,-7,35,23,12,0.00,40.00,14,6,35,0.00
2013-1-7,45,35,27,20,17,10,68,47,33,0.00,40.00,6,3,16,0.00
2013-1-8,41,35,29,23,16,10,57,45,35,0.00,40.00,8,5,29,0.00
2013-1-9,58,46,29,21,16,8,50,30,17,0.00,40.00,14,7,37,0.00
2013-1-10,54,51,46,16,8,4,29,18,13,0.00,40.00,15,8,38,0.00
2013-1-11,47,18,1,21,9,-8,90,71,28,0.00,40.00,11,4,29,0.00
2013-1-12,10,5,1,1,-4,-8,79,67,62,0.00,40.00,9,4,30,0.00
2013-1-13,14,7,4,0,-4,-7,72,61,52,0.00,40.00,10,4,18,0.00
2013-1-14,18,11,7,-2,-6,-13,58,45,29,0.00,40.00,14,7,32,0.00
2013-1-15,36,26,10,27,13,-13,75,59,30,0.00,40.00,13,7,33,0.13
2013-1-16,40,36,33,27,18,16,71,48,38,0.00,40.00,12,8,33,0.07
2013-1-17,46,39,31,19,15,8,56,39,22,0.00,40.00,8,5,23,0.04
2013-1-18,52,46,40,10,8,6,29,21,17,0.00,40.00,14,6,37,0.03
2013-1-19,44,35,21,21,16,10,89,50,28,0.00,40.00,6,3,20,0.00
2013-1-20,40,22,8,19,11,4,89,67,24,0.00,40.00,8,4,28,0.00
2013-1-21,29,12,5,12,6,1,88,79,44,0.00,40.00,3,2,9,0.00
2013-1-22,47,37,28,10,6,1,45,28,18,0.00,40.00,7,4,28,0.00
2013-1-23,37,24,12,15,8,-3,88,55,18,0.00,40.00,4,2,11,0.00
2013-1-24,59,41,15,24,14,0,81,39,11,0.00,40.00,7,4,21,0.00
2013-1-25,47,37,30,23,20,14,65,50,36,0.00,40.00,7,2,14,0.00
2013-1-26,52,42,36,24,21,19,56,43,31,0.00,40.00,7,4,17,0.00
2013-1-27,55,41,28,31,24,17,87,53,38,0.00,40.00,7,3,15,0.00
2013-1-28,28,26,23,26,19,-100,97,89,86,0.00,40.00,3,2,10,0.00
2013-1-29,33,22,8,20,10,-3,90,61,39,0.00,40.00,11,4,28,0.08
2013-1-30,24,16,6,16,6,-3,81,64,50,0.00,40.00,11,3,28,0.01
2013-1-31,28,11,6,18,1,-4,73,63,51,0.00,40.00,7,3,19,0.00
2013-2-1,41,34,28,25,22,19,72,62,48,0.00,40.00,6,4,21,0.00
2013-2-2,40,34,30,24,18,16,78,54,39,0.00,40.00,10,6,39,0.00
2013-2-3,51,41,33,19,12,8,51,33,17,0.00,40.00,10,6,26,0.00
2013-2-4,45,38,33,19,17,14,51,43,32,0.00,40.00,8,5,28,0.00
2013-2-5,44,38,34,25,21,18,60,51,39,0.00,40.00,7,4,22,0.00
2013-2-6,48,39,32,25,21,15,70,49,36,0.00,40.00,9,4,19,0.00
2013-2-7,46,37,32,17,13,9,47,38,22,0.00,40.00,9,5,22,0.00
2013-2-8,46,35,27,20,14,7,65,43,21,0.00,40.00,7,3,19,0.00
2013-2-9,38,30,22,17,14,11,77,51,37,0.00,40.00,8,4,20,0.00
2013-2-10,25,21,12,18,13,2,85,70,59,0.00,40.00,10,5,28,0.00
2013-2-11,31,20,10,11,4,-14,69,51,16,0.00,40.00,10,3,21,0.02
2013-2-12,42,33,26,16,10,-8,54,39,22,0.00,40.00,11,7,30,0.01
2013-2-13,43,34,27,30,19,14,84,55,38,0.00,40.00,10,6,26,0.02
2013-2-14,28,22,15,14,9,1,71,56,37,0.00,40.00,8,5,26,0.01
2013-2-15,29,22,15,15,6,-2,71,50,27,0.00,40.00,6,4,17,0.00
2013-2-16,49,39,27,23,20,15,61,48,34,0.00,40.00,12,5,27,0.00
2013-2-17,52,39,27,22,16,12,67,43,21,0.00,40.00,9,4,23,0.00
2013-2-18,30,22,15,16,9,4,70,58,39,0.00,40.00,7,5,30,0.00
2013-2-19,30,16,4,13,7,-1,83,71,48,0.00,40.00,6,3,16,0.00
2013-2-20,29,20,15,15,12,8,89,70,47,0.00,40.00,9,4,24,0.00
2013-2-21,24,18,15,19,15,12,92,88,78,0.00,40.00,4,2,10,0.01
2013-2-22,35,25,15,18,12,7,89,62,35,0.00,40.00,6,3,16,0.06
2013-2-23,42,34,24,24,12,1,77,42,29,0.00,40.00,7,3,14,0.01
2013-2-24,31,27,23,24,20,11,92,74,59,0.00,40.00,8,4,17,0.01
2013-2-25,45,36,19,9,1,-7,55,24,15,0.00,40.00,7,4,16,0.01
2013-2-26,37,30,26,22,18,8,71,61,39,0.00,40.00,9,5,22,0.00
2013-2-27,37,28,22,14,10,9,62,49,32,0.00,40.00,6,4,22,0.00
2013-2-28,36,29,22,22,17,10,74,59,39,0.00,40.00,7,3,18,0.00
2013-3-1,41,33,23,28,14,3,68,47,21,0.00,40.00,7,4,17,0.00
2013-3-2,56,46,40,28,25,21,62,44,29,0.00,40.00,9,5,21,0.00
2013-3-3,54,46,29,28,24,21,80,44,30,0.00,40.00,7,4,26,0.00
2013-3-4,29,21,13,21,4,-3,71,49,32,0.00,40.00,12,8,44,0.00
2013-3-5,29,20,12,7,1,-6,60,44,25,0.00,40.00,7,4,23,0.00
2013-3-6,45,35,20,20,14,4,57,42,30,0.00,40.00,8,4,20,0.00
2013-3-7,54,44,32,25,21,18,71,42,28,0.00,40.00,8,4,22,0.00
2013-3-8,42,33,27,27,24,21,85,69,53,0.00,40.00,5,2,11,0.00
2013-3-9,39,32,24,26,19,10,82,61,36,0.00,40.00,9,5,24,0.00
2013-3-10,41,30,16,18,2,-14,76,36,9,0.00,40.00,6,3,17,0.00
2013-3-11,43,35,25,22,15,4,64,44,26,0.00,40.00,6,4,25,0.00
2013-3-12,40,27,17,11,0,-6,54,32,14,0.00,40.00,7,4,23,0.00
2013-3-13,60,48,27,25,20,1,41,33,24,0.00,40.00,7,4,22,0.00
2013-3-14,64,55,44,26,24,22,46,31,20,0.00,40.00,8,4,20,0.00
2013-3-15,65,55,41,26,22,18,51,30,17,0.00,40.00,7,5,20,0.00
2013-3-16,41,31,25,31,26,16,98,84,37,0.00,40.00,5,2,12,0.01
2013-3-17,44,33,25,30,25,11,98,74,47,0.00,40.00,14,6,45,0.33
2013-3-18,36,27,18,12,5,-6,60,43,17,0.00,40.00,10,5,36,0.01
2013-3-19,37,27,19,15,9,3,61,48,29,0.00,40.00,9,4,22,0.00
2013-3-20,43,30,16,16,9,2,55,42,22,0.00,40.00,6,3,15,0.00
2013-3-21,37,29,23,23,18,14,90,64,47,0.00,40.00,5,3,11,0.00
2013-3-22,36,26,18,25,20,14,93,79,51,0.00,40.00,5,3,14,0.06
2013-3-23,31,19,11,17,9,0,90,66,40,0.00,40.00,13,6,30,0.36
2013-3-24,22,14,8,7,1,-2,76,59,39,0.00,40.00,6,3,18,0.01
2013-3-25,30,18,6,15,5,-3,82,59,35,0.00,40.00,7,4,17,0.00
2013-3-26,49,32,19,23,9,0,64,38,15,0.00,40.00,6,4,19,0.00
2013-3-27,51,40,31,19,11,5,34,30,23,0.00,40.00,6,4,16,0.00
2013-3-28,57,50,44,26,25,21,48,38,27,0.00,40.00,7,3,11,0.00
2013-3-29,61,51,44,30,25,21,55,36,22,0.00,40.00,9,5,21,0.00
2013-3-30,51,43,35,34,28,-100,80,60,34,0.00,40.00,8,4,21,0.01
2013-3-31,52,39,26,29,22,16,89,54,32,0.00,40.00,7,4,18,0.01
2013-4-1,46,35,24,24,20,14,93,58,37,0.00,40.00,7,3,15,0.00
2013-4-2,53,42,29,23,20,16,71,43,30,0.00,40.00,6,4,13,0.00
2013-4-3,68,52,37,34,24,16,73,36,15,0.00,40.00,12,6,27,0.00
2013-4-4,51,41,34,29,24,17,79,55,33,0.00,40.00,7,4,15,0.00
2013-4-5,68,54,37,35,29,17,74,41,20,0.00,40.00,11,3,35,0.00
2013-4-6,61,50,42,35,28,22,74,46,23,0.00,40.00,11,5,35,0.01
2013-4-7,56,46,40,43,33,25,92,60,36,0.00,40.00,6,3,12,0.09
2013-4-8,40,31,13,38,28,9,98,89,77,0.00,40.00,5,3,21,0.08
2013-4-9,15,10,8,9,5,2,85,79,70,0.00,40.00,5,4,21,0.00
2013-4-10,27,18,9,22,14,5,89,85,80,0.00,40.00,6,3,16,0.18
2013-4-11,33,24,14,26,19,11,95,83,67,0.00,40.00,6,3,15,0.16
2013-4-12,41,32,25,28,22,18,88,66,49,0.00,40.00,7,4,20,0.24
2013-4-13,54,39,26,39,26,14,96,62,33,0.00,40.00,14,5,32,0.02
2013-4-14,40,32,18,36,19,6,88,60,45,0.00,40.00,11,6,34,0.03
2013-4-15,34,22,15,20,11,4,88,64,38,0.00,40.00,13,5,26,0.00
2013-4-16,24,22,19,20,18,14,92,86,73,0.00,40.00,6,3,14,0.03
2013-4-17,25,21,16,21,18,12,92,86,78,0.00,40.00,7,3,13,0.04
2013-4-18,35,24,15,12,10,6,84,58,30,0.00,40.00,7,4,22,0.39
2013-4-19,34,30,28,29,25,11,97,84,49,0.00,40.00,5,3,21,0.04
2013-4-20,54,39,27,38,31,26,97,78,38,0.00,40.00,9,4,19,0.31
2013-4-21,47,37,29,37,32,29,98,83,61,0.00,40.00,10,5,23,0.43
2013-4-22,29,23,16,29,19,10,98,86,75,0.00,40.00,7,5,17,0.25
2013-4-23,36,25,15,21,14,8,84,64,40,0.00,40.00,7,4,15,0.10
2013-4-24,39,34,27,21,17,12,61,50,39,0.00,40.00,12,6,26,0.05
2013-4-25,60,49,31,19,16,9,59,29,14,0.00,40.00,11,5,21,0.00
2013-4-26,64,55,43,28,22,16,38,29,22,0.00,40.00,8,4,13,0.00
2013-4-27,71,62,52,26,22,16,32,22,18,0.00,40.00,9,5,19,0.00
2013-4-28,65,57,42,42,30,18,93,42,18,0.00,40.00,7,4,16,0.09
2013-4-29,67,54,42,40,34,22,93,52,18,0.00,40.00,13,7,31,0.11
2013-4-30,51,37,29,31,26,10,97,70,26,0.00,40.00,6,3,20,0.00
2013-5-1,39,31,23,27,18,8,91,61,34,0.00,40.00,7,3,18,0.15
2013-5-2,48,38,30,26,17,8,55,42,29,0.00,40.00,6,4,20,0.02
2013-5-3,55,44,34,22,17,12,45,34,25,0.00,40.00,6,4,16,0.00
2013-5-4,51,43,31,20,15,11,50,33,23,0.00,40.00,7,4,16,0.00
2013-5-5,56,45,35,22,16,9,39,31,24,0.00,40.00,6,3,14,0.00
2013-5-6,63,53,40,26,23,18,45,31,23,0.00,40.00,8,4,17,0.00
2013-5-7,67,55,47,41,34,22,64,45,32,0.00,40.00,9,3,17,0.02
2013-5-8,65,58,51,40,36,32,64,44,32,0.00,40.00,8,4,20,0.02
2013-5-9,62,51,46,45,40,34,87,67,42,0.00,40.00,7,2,22,0.13
2013-5-10,68,52,44,44,33,-100,84,58,20,0.00,40.00,7,3,20,0.04
2013-5-11,58,47,40,29,24,-100,49,41,33,0.00,40.00,7,4,15,0.03
2013-5-12,71,61,43,37,33,25,51,36,27,0.00,40.00,8,4,17,0.00
2013-5-13,82,73,62,45,38,33,35,28,21,0.00,40.00,9,5,19,0.01
2013-5-14,77,70,58,46,37,29,40,31,17,0.00,40.00,10,5,26,0.01
2013-5-15,71,60,51,43,35,27,53,39,29,0.00,40.00,9,4,27,0.00
2013-5-16,72,54,53,54,28,-100,97,62,41,0.00,40.00,9,5,27,0.13
2013-5-17,70,61,53,54,43,-100,77,64,52,0.00,40.00,8,4,17,0.13
2013-5-18,68,58,51,55,49,43,84,72,62,0.00,40.00,11,4,22,0.22
2013-5-19,57,52,47,51,47,41,92,83,68,0.00,40.00,9,4,23,0.35
2013-5-20,54,47,40,41,38,36,92,72,58,0.00,40.00,9,6,40,0.02
2013-5-21,55,46,40,39,37,36,94,74,53,0.00,40.00,6,4,25,0.06
2013-5-22,55,46,41,43,40,36,92,79,63,0.00,40.00,8,4,17,0.01
2013-5-23,59,51,43,43,39,33,98,67,49,0.00,40.00,9,6,24,0.01
2013-5-24,78,61,51,52,47,34,88,64,20,0.00,40.00,12,6,29,0.00
2013-5-25,75,65,54,54,51,46,79,61,43,0.00,40.00,7,4,19,0.00
2013-5-26,72,60,50,56,54,50,99,83,50,0.00,40.00,6,3,15,0.00
2013-5-27,73,58,51,61,54,42,100,89,55,0.00,40.00,7,2,22,0.22
2013-5-28,71,60,50,46,37,28,76,44,25,0.00,40.00,9,4,19,0.16
2013-5-29,64,56,50,53,48,44,98,75,51,0.00,40.00,6,3,18,0.40
2013-5-30,56,51,47,49,42,35,99,72,53,0.00,40.00,20,9,46,0.50
2013-5-31,50,46,44,37,35,34,77,65,57,0.00,40.00,14,10,43,0.01
2013-6-1,61,51,41,38,33,-100,78,57,33,0.00,40.00,7,5,33,0.00
2013-6-2,68,56,43,48,40,34,87,58,40,0.00,40.00,7,4,19,0.00
2013-6-3,72,61,50,51,43,30,87,54,22,0.00,40.00,11,5,26,0.00
2013-6-4,61,52,42,42,34,27,71,50,36,0.00,40.00,10,4,29,0.00
2013-6-5,59,47,40,39,36,31,73,65,46,0.00,40.00,6,3,15,0.00
2013-6-6,67,55,41,45,41,37,85,61,45,0.00,40.00,5,3,13,0.00
2013-6-7,74,66,51,53,45,38,93,51,33,0.00,40.00,10,5,29,0.16
2013-6-8,69,60,52,52,44,37,93,59,33,0.00,40.00,15,6,38,0.23
2013-6-9,72,66,53,50,44,33,64,46,33,0.00,40.00,7,4,23,0.01
2013-6-10,84,71,62,57,52,43,75,52,26,0.00,40.00,8,4,24,0.00
2013-6-11,70,62,53,61,56,51,95,80,60,0.00,40.00,7,4,18,0.23
2013-6-12,63,57,53,53,50,45,98,77,53,0.00,40.00,9,4,23,0.24
2013-6-13,72,60,50,54,49,44,90,68,52,0.00,40.00,7,4,23,0.00
2013-6-14,78,68,56,54,48,30,70,52,17,0.00,40.00,10,5,30,0.00
2013-6-15,71,62,54,45,42,36,68,48,36,0.00,40.00,7,4,17,0.00
2013-6-16,75,66,57,57,51,44,76,58,45,0.00,40.00,9,4,19,0.00
2013-6-17,68,59,53,56,50,45,95,73,48,0.00,40.00,7,3,15,0.56
2013-6-18,76,70,55,57,52,45,77,55,44,0.00,40.00,8,5,20,0.07
2013-6-19,78,70,61,61,53,42,72,55,40,0.00,40.00,10,6,21,0.00
2013-6-20,78,69,62,60,49,36,85,53,23,0.00,40.00,11,4,24,0.03
2013-6-22,72,62,53,56,53,45,95,73,57,0.00,40.00,6,4,37,0.26
2013-6-23,73,65,51,49,43,35,72,47,28,0.00,40.00,9,4,19,0.21
2013-6-24,81,72,60,60,51,37,86,50,30,0.00,40.00,7,4,18,0.00
2013-6-25,80,72,63,52,46,34,66,40,24,0.00,40.00,17,6,44,0.00
2013-6-26,83,76,63,56,52,43,66,44,25,0.00,40.00,6,3,15,0.00
2013-6-27,83,73,63,54,51,46,65,47,27,0.00,40.00,6,3,19,0.00
2013-6-28,83,73,63,51,48,42,62,43,28,0.00,40.00,6,3,17,0.00
2013-6-29,76,68,59,54,48,39,72,48,37,0.00,40.00,8,4,19,0.00
2013-6-30,77,69,60,50,48,42,64,47,39,0.00,40.00,6,3,14,0.00
2013-7-1,75,66,57,54,50,44,79,57,46,0.00,40.00,6,3,14,0.03
2013-7-2,78,71,58,51,47,44,68,44,35,0.00,40.00,6,3,17,0.03
2013-7-3,86,81,65,50,43,41,50,27,23,0.00,40.00,7,5,17,0.00
2013-7-4,83,73,63,56,54,47,76,53,33,0.00,40.00,7,4,23,0.11
2013-7-5,80,71,64,62,54,48,94,57,38,0.00,40.00,9,4,21,0.07
2013-7-6,82,69,62,61,55,49,79,62,42,0.00,40.00,10,3,21,0.04
2013-7-7,81,70,61,61,56,49,87,62,42,0.00,40.00,7,4,15,0.09
2013-7-8,79,67,58,61,57,54,88,72,45,0.00,40.00,8,4,19,0.28
2013-7-9,79,70,60,55,51,47,68,52,33,0.00,40.00,6,4,19,0.16
2013-7-10,88,71,58,58,47,-100,74,48,23,0.00,40.00,8,3,19,0.00
2013-7-11,94,81,71,58,52,43,63,40,20,0.00,40.00,9,6,37,0.00
2013-7-12,84,75,65,59,53,49,79,49,31,0.00,40.00,8,4,20,0.01
2013-7-13,87,77,65,61,58,50,68,52,34,0.00,40.00,6,3,17,0.01
2013-7-14,75,65,57,62,58,54,98,79,60,0.00,40.00,5,2,12,0.04
2013-7-15,79,69,59,63,60,51,99,77,47,0.00,40.00,6,4,20,0.01
2013-7-16,86,80,71,53,48,44,51,34,24,0.00,40.00,5,4,14,0.00
2013-7-17,86,77,67,55,52,50,62,43,32,0.00,40.00,9,5,22,0.00
2013-7-18,88,77,66,64,56,49,84,52,26,0.00,40.00,6,4,15,0.30
2013-7-19,83,72,61,58,54,51,82,54,35,0.00,40.00,9,5,24,0.20
2013-7-20,82,68,62,65,57,-100,94,72,45,0.00,40.00,7,2,20,0.69
2013-7-21,86,72,62,61,56,51,92,61,34,0.00,40.00,13,6,26,0.05
2013-7-22,80,72,61,58,52,48,87,54,35,0.00,40.00,8,5,24,0.10
2013-7-23,77,67,58,63,58,52,88,73,57,0.00,40.00,7,3,17,0.21
2013-7-24,79,73,65,60,56,52,69,55,44,0.00,40.00,7,3,13,0.01
2013-7-25,76,66,54,58,53,49,97,66,42,0.00,40.00,10,5,24,0.67
2013-7-26,66,58,48,55,49,44,99,73,60,0.00,40.00,8,3,28,0.33
2013-7-27,66,57,48,52,47,42,83,69,57,0.00,40.00,5,3,14,0.05
2013-7-28,70,64,55,58,55,51,87,73,57,0.00,40.00,5,3,12,0.00
2013-7-29,74,65,57,63,56,52,91,73,54,0.00,40.00,7,2,18,0.07
2013-7-30,85,69,60,60,55,43,93,66,23,0.00,40.00,7,3,22,0.07
2013-7-31,75,70,60,59,52,43,92,54,41,0.00,40.00,9,3,24,0.03
2013-8-1,79,71,61,56,52,48,72,54,35,0.00,40.00,7,4,14,0.00
2013-8-2,71,61,52,58,54,51,100,82,53,0.00,40.00,9,4,19,0.09
2013-8-3,72,64,57,61,58,55,100,81,59,0.00,40.00,7,4,19,0.49
2013-8-4,82,69,60,65,61,58,100,80,56,0.00,40.00,6,3,19,0.05
2013-8-5,77,68,57,63,58,48,93,73,53,0.00,40.00,18,6,34,0.90
2013-8-6,75,66,57,57,52,47,98,63,43,0.00,40.00,9,3,22,1.07
2013-8-7,73,66,59,58,53,43,90,65,44,0.00,40.00,10,4,28,0.24
2013-8-8,72,66,57,58,53,43,81,65,47,0.00,40.00,14,3,27,0.20
2013-8-9,74,62,57,57,53,45,96,73,50,0.00,40.00,8,3,21,0.14
2013-8-10,73,66,57,61,58,55,97,77,64,0.00,40.00,6,3,14,0.15
2013-8-11,73,64,57,62,58,49,99,84,60,0.00,40.00,9,3,18,0.65
2013-8-12,77,67,58,62,55,44,86,67,48,0.00,40.00,6,2,16,0.02
2013-8-13,72,62,56,62,56,-100,98,84,65,0.00,40.00,6,2,22,0.25
2013-8-14,73,63,56,61,54,47,96,74,56,0.00,40.00,6,3,12,0.01
2013-8-15,74,61,57,61,48,-100,96,74,53,0.00,40.00,7,3,28,0.11
2013-8-16,79,68,58,62,54,-100,99,66,46,0.00,40.00,6,3,16,0.11
2013-8-17,87,81,74,60,54,-100,58,43,31,0.00,40.00,7,4,12,0.00
2013-8-18,80,75,70,62,58,51,74,57,44,0.00,40.00,8,4,14,0.04
2013-8-19,85,74,67,56,42,-100,65,38,29,0.00,40.00,5,4,10,0.04
2013-8-20,89,83,72,57,52,46,45,34,26,0.00,40.00,6,3,12,0.00
2013-8-21,74,69,62,54,50,45,69,51,39,0.00,40.00,5,2,21,0.00
2013-8-22,78,68,60,60,55,47,87,64,47,0.00,40.00,6,3,15,0.00
2013-8-23,84,73,62,67,60,55,87,65,43,0.00,40.00,12,4,24,0.00
2013-8-24,87,79,69,51,46,-100,47,33,26,0.00,40.00,11,6,23,0.00
2013-8-25,87,79,69,58,54,48,55,43,32,0.00,40.00,6,3,14,0.00
2013-8-26,89,79,72,56,50,42,57,38,21,0.00,40.00,9,4,21,0.00
2013-8-27,92,91,90,50,49,49,25,24,24,0.00,40.00,5,4,13,0.00
2013-8-28,85,79,71,67,63,46,77,60,33,0.00,40.00,10,5,31,0.01
2013-8-29,90,80,71,56,51,42,50,37,26,0.00,40.00,9,3,23,0.00
2013-8-30,89,79,67,65,58,51,63,49,36,0.00,40.00,9,4,19,0.00
2013-8-31,88,73,62,54,43,-100,49,36,28,0.00,40.00,8,3,19,0.00
2013-9-1,77,70,54,46,43,35,52,38,32,0.00,40.00,6,3,12,0.00
2013-9-2,86,80,61,52,48,43,52,34,24,0.00,40.00,5,3,15,0.00
2013-9-3,89,79,68,58,55,50,69,46,30,0.00,40.00,7,4,16,0.00
2013-9-4,86,78,68,64,59,54,73,53,39,0.00,40.00,7,3,16,0.04
2013-9-5,89,78,63,62,60,56,89,56,37,0.00,40.00,5,3,16,0.03
2013-9-6,90,80,69,62,56,47,69,45,28,0.00,40.00,8,3,18,0.12
2013-9-7,87,80,69,62,53,-100,62,42,29,0.00,40.00,8,3,15,0.12
2013-9-8,78,68,61,64,61,57,100,81,58,0.00,40.00,11,3,34,0.32
2013-9-9,72,64,60,60,56,53,91,76,65,0.00,40.00,10,3,19,0.01
2013-9-10,72,65,58,53,51,47,77,60,46,0.00,40.00,6,3,15,0.00
2013-9-11,79,69,57,50,44,39,77,43,26,0.00,40.00,5,2,12,0.00
2013-9-12,72,65,53,51,46,41,65,50,40,0.00,40.00,5,3,13,0.00
2013-9-13,61,57,55,56,52,44,100,85,56,0.00,40.00,5,4,14,0.01
2013-9-14,78,62,55,57,53,-100,100,76,35,0.00,40.00,7,4,16,0.01
2013-9-15,59,54,51,56,50,47,100,88,66,0.00,40.00,6,3,16,0.05
2013-9-16,61,54,50,54,50,47,92,84,72,0.00,40.00,8,4,22,0.01
2013-9-17,87,80,60,54,44,37,81,30,17,0.00,40.00,8,4,19,0.00
2013-9-18,65,60,55,46,45,43,65,57,46,0.00,40.00,6,4,18,0.00
2013-9-19,62,53,46,43,35,30,65,51,31,0.00,40.00,10,6,26,0.00
2013-9-20,68,56,43,37,34,32,66,46,31,0.00,40.00,5,3,13,0.00
2013-9-21,85,77,70,25,16,-100,18,11,8,0.00,40.00,6,4,21,0.00
2013-9-22,84,76,58,52,41,28,79,31,20,0.00,40.00,10,6,27,0.01
2013-9-23,59,54,49,52,47,41,95,80,66,0.00,40.00,8,4,24,0.36
2013-9-24,70,64,58,40,36,34,51,36,28,0.00,40.00,5,5,18,0.03
2013-9-25,76,64,55,45,40,28,66,42,17,0.00,40.00,8,4,24,0.00
2013-9-26,60,54,45,48,41,35,69,63,47,0.00,40.00,9,5,19,0.00
2013-9-27,45,39,37,37,36,34,99,87,68,0.00,40.00,6,3,23,0.09
2013-9-28,61,49,36,37,28,-100,99,49,28,0.00,40.00,10,7,29,0.05
2013-9-29,70,61,49,33,30,27,54,32,20,0.00,40.00,16,8,47,0.00
2013-9-30,77,65,51,42,32,29,62,32,19,0.00,40.00,17,9,44,0.00
2013-10-1,61,59,58,34,33,32,39,37,36,0.00,40.00,6,4,12,0.00
2013-10-2,61,54,46,36,32,26,56,42,32,0.00,40.00,10,5,24,0.00
2013-10-3,46,41,32,39,36,31,99,83,56,0.00,40.00,7,4,21,0.32
2013-10-4,32,29,26,32,28,25,99,97,94,0.00,40.00,8,5,29,0.32
2013-10-5,39,31,24,29,25,22,95,80,60,0.00,40.00,10,7,33,0.00
2013-10-6,62,47,36,37,32,25,66,56,38,0.00,40.00,7,5,29,0.26
2013-10-7,64,63,62,25,23,22,23,21,20,0.00,40.00,15,9,33,0.79
2013-10-8,66,55,44,41,31,22,60,41,21,0.00,40.00,11,3,30,0.34
2013-10-9,53,46,42,32,29,27,67,51,38,0.00,40.00,6,3,18,0.00
2013-10-10,58,50,42,46,43,32,99,76,59,0.00,40.00,4,2,12,0.03
2013-10-11,46,41,35,46,35,25,100,81,54,0.00,40.00,13,7,41,2.60
2013-10-12,52,40,32,32,24,-100,91,57,31,0.00,40.00,6,3,19,0.01
2013-10-13,54,44,34,41,36,29,94,75,57,0.00,40.00,5,2,11,0.05
2013-10-14,45,38,30,42,35,25,99,90,78,0.00,40.00,7,4,25,0.64
2013-10-15,38,32,29,25,24,19,84,70,53,0.00,40.00,8,5,21,0.01
2013-10-16,53,43,30,26,19,6,59,40,15,0.00,40.00,4,3,12,0.01
2013-10-17,40,34,30,28,21,15,74,59,40,0.00,40.00,6,4,18,0.00
2013-10-18,40,34,29,23,20,17,77,58,42,0.00,40.00,14,5,34,0.00
2013-10-19,57,47,39,30,24,-100,54,43,30,0.00,40.00,14,6,34,0.00
2013-10-20,45,40,35,32,29,24,80,65,50,0.00,40.00,8,4,22,0.00
2013-10-21,50,42,34,34,30,22,71,64,52,0.00,40.00,13,6,30,0.00
2013-10-22,50,43,40,37,34,32,86,72,50,0.00,40.00,5,3,17,0.00
2013-10-23,51,44,35,37,34,31,95,67,52,0.00,40.00,5,3,15,0.00
2013-10-24,46,36,30,37,33,30,99,91,68,0.00,40.00,3,2,8,0.00
2013-10-25,65,56,43,37,34,30,74,44,33,0.00,40.00,5,3,17,0.00
2013-10-26,57,48,39,35,25,-100,58,43,31,0.00,40.00,5,3,17,0.00
2013-10-27,63,50,32,33,31,18,91,52,24,0.00,40.00,8,6,19,0.00
2013-10-28,32,23,21,30,20,-100,98,94,91,0.00,40.00,7,3,15,0.00
2013-10-29,29,25,21,28,24,19,98,95,93,0.00,40.00,3,1,9,0.00
2013-10-30,44,37,29,40,33,28,98,87,67,0.00,40.00,7,3,17,0.23
2013-10-31,47,40,36,30,26,21,74,57,44,0.00,40.00,9,5,33,0.23
2013-11-1,45,38,34,33,23,16,89,56,33,0.00,40.00,10,6,38,0.00
2013-11-2,54,47,36,27,21,-100,46,38,28,0.00,40.00,6,4,18,0.00
2013-11-3,54,45,35,32,25,18,74,48,24,0.00,40.00,17,5,40,0.00
2013-11-4,41,32,26,25,20,12,92,64,30,0.00,40.00,8,3,20,0.00
2013-11-5,27,24,21,24,22,15,95,91,77,0.00,40.00,4,2,8,0.00
2013-11-6,43,34,23,27,22,12,83,62,50,0.00,40.00,7,3,23,0.34
2013-11-7,48,39,29,29,24,17,65,55,44,0.00,40.00,6,3,17,0.01
2013-11-8,51,42,39,28,20,16,53,41,29,0.00,40.00,20,7,42,0.00
2013-11-9,44,37,31,27,22,-100,73,55,41,0.00,40.00,9,2,19,0.00
2013-11-10,61,45,28,31,28,23,93,55,28,0.00,40.00,9,3,27,0.00
2013-11-11,28,21,16,26,19,14,97,91,87,0.00,40.00,4,2,9,0.00
2013-11-12,61,47,22,20,15,8,87,36,12,0.00,40.00,7,2,18,0.01
2013-11-13,60,52,41,37,27,23,85,40,24,0.00,40.00,5,3,25,0.03
2013-11-14,49,41,36,37,26,20,92,57,36,0.00,40.00,8,5,25,0.08
2013-11-15,49,42,36,29,22,17,66,47,29,0.00,40.00,12,3,24,0.00
2013-11-16,43,36,30,26,19,-100,83,54,38,0.00,40.00,12,4,27,0.00
2013-11-17,39,33,28,27,16,6,87,52,28,0.00,40.00,9,5,31,0.02
2013-11-18,55,44,28,20,16,10,46,32,23,0.00,40.00,4,3,9,0.02
2013-11-19,56,53,48,23,21,17,35,28,24,0.00,40.00,18,10,40,0.00
2013-11-20,45,31,16,28,20,7,95,65,49,0.00,40.00,6,4,19,0.00
2013-11-21,18,13,8,7,4,-1,84,69,58,0.00,40.00,5,3,12,0.00
2013-11-22,39,30,22,5,-2,-16,44,27,11,0.00,40.00,4,3,14,0.04
2013-11-23,42,32,17,15,5,-100,54,34,23,0.00,40.00,5,3,13,0.01
2013-11-24,58,43,34,27,18,6,51,37,26,0.00,40.00,15,5,34,0.00
2013-11-25,42,35,29,22,17,12,59,48,35,0.00,40.00,7,4,19,0.00
2013-11-26,32,27,20,18,14,9,80,59,45,0.00,40.00,5,3,20,0.00
2013-11-27,56,45,34,16,13,9,45,28,19,0.00,40.00,6,4,21,0.00
2013-11-28,45,33,24,24,18,10,68,55,36,0.00,40.00,3,2,11,0.00
2013-11-29,58,53,38,24,18,15,49,26,19,0.00,40.00,5,4,17,0.00
2013-11-30,49,43,36,23,19,-100,58,42,34,0.00,40.00,3,2,10,0.00
2013-12-1,49,45,38,26,24,23,55,43,38,0.00,40.00,8,5,21,0.00
2013-12-2,46,40,30,33,28,23,98,62,43,0.00,40.00,10,3,28,0.00
2013-12-3,30,16,8,29,14,3,98,89,80,0.00,40.00,6,3,21,0.00
2013-12-4,8,4,-3,4,-5,-13,82,67,54,0.00,40.00,7,5,22,0.00
2013-12-5,8,-3,-9,-7,-13,-18,75,61,43,0.00,40.00,5,2,14,0.00
2013-12-6,0,-9,-15,-11,-17,-22,73,66,56,0.00,40.00,5,2,10,0.00
2013-12-7,-3,-11,-19,-9,-19,-100,76,68,63,0.00,40.00,4,2,8,0.00
2013-12-8,11,1,-3,0,-8,-15,78,66,45,0.00,40.00,5,3,24,0.00
2013-12-9,20,10,-2,9,-5,-16,63,49,28,0.00,40.00,18,8,43,0.00
2013-12-10,29,19,10,15,7,-2,83,59,51,0.00,40.00,8,5,25,0.00
2013-12-11,33,24,10,6,3,-3,61,41,28,0.00,40.00,9,4,22,0.08
2013-12-12,46,38,29,17,14,2,50,38,25,0.00,40.00,4,2,10,0.08
2013-12-13,39,33,28,22,20,15,73,58,42,0.00,40.00,4,3,16,0.02
2013-12-14,39,33,28,22,17,-100,72,54,42,0.00,40.00,9,6,22,0.00
2013-12-15,49,42,36,22,19,15,56,39,30,0.00,40.00,8,5,20,0.00
2013-12-16,46,40,32,21,18,15,57,42,30,0.00,40.00,8,5,30,0.00
2013-12-17,53,37,29,21,18,15,64,48,23,0.00,40.00,7,3,24,0.00
2013-12-18,57,42,27,20,18,14,73,43,19,0.00,40.00,7,2,13,0.00
2013-12-19,27,13,0,22,10,-5,96,86,73,0.00,40.00,4,2,9,0.00
2013-12-20,31,16,2,18,9,-2,89,74,49,0.00,40.00,4,2,9,0.18
2013-12-21,24,18,13,18,10,-100,91,75,55,0.00,40.00,4,1,12,0.08
2013-12-22,17,10,1,11,3,-5,91,73,52,0.00,40.00,6,2,19,0.00
2013-12-23,36,8,-3,25,-2,-9,75,66,53,0.00,40.00,3,1,10,0.05
2013-12-24,37,33,28,28,21,13,80,62,44,0.00,40.00,11,5,31,0.05
2013-12-25,37,29,23,14,11,5,60,47,31,0.00,40.00,6,4,26,0.02
2013-12-26,47,40,35,23,17,4,49,40,24,0.00,40.00,9,4,25,0.01
2013-12-27,58,49,42,27,23,17,50,37,27,0.00,40.00,6,3,29,0.01
2013-12-28,46,29,5,23,9,-100,73,46,27,0.00,40.00,12,5,26,0.00
2013-12-29,32,18,4,16,6,-2,77,59,41,0.00,40.00,7,3,20,0.00
2013-12-30,36,31,27,22,19,16,79,61,45,0.00,40.00,6,4,25,0.00
2013-12-31,41,36,30,29,24,17,89,63,50,0.00,40.00,6,3,18,0.00
2014-1-1,33,26,20,27,15,10,89,62,44,0.00,40.00,8,4,20,0.00
2014-1-2,40,31,23,19,14,11,68,52,35,0.00,40.00,6,3,20,0.00